Regional Weather Roundup
Issued by NWS

Home | Current Version | Previous Version | Graphics & Text | Print | Product List | Glossary On
Versions: 1 2 3 4 5 6 7 8 9 10 11 12 13 14 15 16 17 18 19 20 21 22 23 24 25 26 27 28 29 30 31 32 33 34 35 36 37 38 39 40 41 42 43 44 45 46 47 48 49 50
249
ASUS43 KMKX 221221
RWRWI

WISCONSIN REGIONAL WEATHER ROUNDUP
NATIONAL WEATHER SERVICE MILWAUKEE/SULLIVAN WI
700 AM CDT SAT JUL 22 2017

NOTE: "FAIR" INDICATES FEW OR NO CLOUDS BELOW 12,000 FEET WITH NO
SIGNIFICANT WEATHER AND/OR OBSTRUCTIONS TO VISIBILITY.

WIZ001-002-006>008-014>016-023>028-221300-
NORTHWEST WISCONSIN

CITY           SKY/WX    TMP DP  RH WIND       PRES   REMARKS
SUPERIOR ARPT  NOT AVBL
ASHLAND        CLOUDY    63  62  97 W9        29.84R FOG
6HR MIN TEMP:  60; 6HR MAX TEMP:  63;

HAYWARD        CLOUDY    65  62  90 CALM      29.85S
6HR MIN TEMP:  63; 6HR MAX TEMP:  68;

SIREN          PTSUNNY   63  62  97 CALM      29.86R
6HR MIN TEMP:  60; 6HR MAX TEMP:  65;

CUMBERLAND     PTSUNNY   63  61  94 CALM      29.86R
RICE LAKE      PTSUNNY   64  63  97 CALM      29.86S
6HR MIN TEMP:  62; 6HR MAX TEMP:  65;

CHETEK         PTSUNNY   65  65 100 CALM      29.85R
6HR MIN TEMP:  62; 6HR MAX TEMP:  65;

LADYSMITH      CLOUDY    65  64  97 CALM      29.86R
6HR MIN TEMP:  63; 6HR MAX TEMP:  66;

EAU CLAIRE     CLOUDY    67  66  97 NW3       29.83R
6HR MIN TEMP:  65; 6HR MAX TEMP:  69;

MENOMONIE      CLOUDY    68  66  95 CALM      29.84R
6HR MIN TEMP:  65; 6HR MAX TEMP:  69;

NEW RICHMOND   CLOUDY    65  65  97 CALM      29.84S
6HR MIN TEMP:  64; 6HR MAX TEMP:  69;

OSCEOLA        CLOUDY    66  66 100 CALM      29.87S
6HR MIN TEMP:  65; 6HR MAX TEMP:  69;

$$

WIZ003>005-009-010-017-018-221300-
NORTH CENTRAL WISCONSIN

CITY           SKY/WX    TMP DP  RH WIND       PRES   REMARKS
MANITOWISH WTR CLOUDY    66  66 100 CALM      29.85R
6HR MIN TEMP:  64; 6HR MAX TEMP:  67;

ARBOR VITAE    CLOUDY    67  65  96 CALM      29.86R FOG
6HR MIN TEMP:  66; 6HR MAX TEMP:  69;

WOODRUFF       CLOUDY    67  65  96 CALM      29.86R FOG
6HR MIN TEMP:  66; 6HR MAX TEMP:  69;

RHINELANDER    CLOUDY    65  63  93 CALM      29.86S
6HR MIN TEMP:  61; 6HR MAX TEMP:  67; 6HR PCP: TRACE;

EAGLE RIVER    CLOUDY    65  58  78 CALM      29.86R
6HR MIN TEMP:  63; 6HR MAX TEMP:  67;

LAND O LAKES   CLOUDY    66  61  84 CALM      29.87R
6HR MIN TEMP:  63; 6HR MAX TEMP:  69;

PHILLIPS       CLOUDY    66  66 100 CALM      29.85S
6HR MIN TEMP:  63; 6HR MAX TEMP:  67;

TOMAHAWK         N/A     64  63  95 CALM      29.86R FOG
6HR MIN TEMP:  63; 6HR MAX TEMP:  66;

MEDFORD        CLOUDY    66  66  97 CALM      29.84R FOG
6HR MIN TEMP:  64; 6HR MAX TEMP:  67;

MERRILL        CLOUDY    64  64 100 CALM      29.85R FOG
6HR MIN TEMP:  62; 6HR MAX TEMP:  66;

$$

WIZ029-030-035-036-043>047-221300-
CENTRAL WISCONSIN

CITY           SKY/WX    TMP DP  RH WIND       PRES   REMARKS
WAUSAU         CLOUDY    66  66 100 E3        29.82R FOG
6HR MIN TEMP:  65; 6HR MAX TEMP:  67;

MOSINEE        FOG       64  64 100 CALM      29.84S VSB 1/4
MARSHFIELD     FOG       68  66  93 CALM      29.81F VSB 1/4
6HR MIN TEMP:  64; 6HR MAX TEMP:  68;

STEVENS POINT  CLOUDY    64  64 100 CALM      29.83F FOG
6HR MIN TEMP:  64; 6HR MAX TEMP:  66;

WAUPACA        CLOUDY    69  65  89 CALM      29.83R
6HR MIN TEMP:  67; 6HR MAX TEMP:  69;

WAUTOMA        CLOUDY    65  64  97 N3        29.83R
6HR MIN TEMP:  65; 6HR MAX TEMP:  66;

WISC RAPIDS    FOG       66  66 100 SE6       29.82F VSB 1/2
6HR MIN TEMP:  66; 6HR MAX TEMP:  68;

CAMP DOUGLAS   FOG       66  66 100 E3        29.81R VSB 3/4
$$

WIZ011>013-019>022-031-037>040-048>050-221300-
NORTHEAST WISCONSIN

CITY           SKY/WX    TMP DP  RH WIND       PRES   REMARKS
ANTIGO         CLOUDY    64  63  99 CALM      29.86R FOG
6HR MIN TEMP:  60; 6HR MAX TEMP:  64;

SHAWANO        CLOUDY    68  60  75 CALM      29.83R
6HR MIN TEMP:  65; 6HR MAX TEMP:  71;

OCONTO         CLOUDY    67  64  89 CALM      29.81R
6HR MIN TEMP:  62; 6HR MAX TEMP:  69;

STURGEON BAY     N/A     68  64  87 E5        29.82R
6HR MIN TEMP:  66; 6HR MAX TEMP:  70;

GREEN BAY      CLOUDY    69  65  86 CALM      29.82R
6HR MIN TEMP:  66; 6HR MAX TEMP:  71; 6HR PCP: TRACE;

MANITOWOC      CLOUDY    70  64  81 E7        29.82R
6HR MIN TEMP:  67; 6HR MAX TEMP:  70; 6HR PCP: TRACE;

APPLETON       CLOUDY    66  57  72 CALM      29.81R
CLINTONVILLE   CLOUDY    66  57  72 CALM      29.83R
OSHKOSH        CLOUDY    68  63  84 SE5       29.81R
6HR MIN TEMP:  66; 6HR MAX TEMP:  69;

$$

WIZ032>034-041-042-053>061-221300-
SOUTHWEST WISCONSIN

CITY           SKY/WX    TMP DP  RH WIND       PRES   REMARKS
LA CROSSE      CLOUDY    74  70  87 CALM      29.78R
6HR MIN TEMP:  73; 6HR MAX TEMP:  74;

SPARTA         CLOUDY    66  66 100 CALM      29.81R FOG
6HR MIN TEMP:  66; 6HR MAX TEMP:  67;

VIROQUA        CLOUDY    68  68 100 CALM      29.80R VSB 1/4
6HR MIN TEMP:  68; 6HR MAX TEMP:  69;

BOSCOBEL       CLOUDY    71  70  96 CALM      29.77F FOG
6HR MIN TEMP:  70; 6HR MAX TEMP:  73;

PRAIRIE DU CHI CLOUDY    70  69  96 SE3       29.77R
6HR MIN TEMP:  69; 6HR MAX TEMP:  71;

PLATTEVILLE    CLOUDY    70  70 100 CALM      29.81R
6HR MIN TEMP:  69; 6HR MAX TEMP:  70; 6HR PCP:  0.10;

$$

WIZ056-057-062-063-064-067-068-221300-
SOUTH CENTRAL WISCONSIN

CITY           SKY/WX    TMP DP  RH WIND       PRES   REMARKS
REEDSBURG      FOG       67  67 100 CALM      29.79S VSB 1/2
6HR MIN TEMP:  65; 6HR MAX TEMP:  68;

BARABOO/DELLS  FOG       67  65  96 CALM      29.80R VSB 1
6HR MIN TEMP:  65; 6HR MAX TEMP:  67;

LONE ROCK      CLOUDY    69  68  96 SE5       29.78S FOG
6HR MIN TEMP:  68; 6HR MAX TEMP:  70;

MINERAL POINT  CLOUDY    70  70 100 CALM      29.80F
MADISON        CLOUDY    71  69  93 CALM      29.78F
6HR MIN TEMP:  66; 6HR MAX TEMP:  71; 6HR PCP: TRACE;

MIDDLETON      CLOUDY    71  71 100 CALM      29.80S
6HR MIN TEMP:  67; 6HR MAX TEMP:  71;

WATERTOWN      CLOUDY    68  68 100 CALM      29.79F
6HR MIN TEMP:  64; 6HR MAX TEMP:  68;

MONROE         CLOUDY    68  66  94 NW6       29.80S
JANESVILLE     CLOUDY    70  70 100 SW6       29.78F
$$

WIZ051-052-058>065-066-070>072-221300-
SOUTHEAST WISCONSIN

CITY           SKY/WX    TMP DP  RH WIND       PRES   REMARKS
MILWAUKEE      CLOUDY    71  69  93 NW7       29.79R
6HR MIN TEMP:  68; 6HR MAX TEMP:  71; 6HR PCP:  0.02;

WAUKESHA       CLOUDY    66  66 100 W6        29.81S
MILWAUKEE/TIMM CLOUDY    68  63  83 NW5       29.81R
RACINE         CLOUDY    71  70  96 W9        29.80S
6HR MIN TEMP:  70; 6HR MAX TEMP:  72;

KENOSHA        CLOUDY    71  68  90 W9G18     29.79S
6HR MIN TEMP:  71; 6HR MAX TEMP:  73; 6HR PCP:  0.07;

FOND DU LAC    LGT RAIN  66  63  90 CALM      29.81R FOG
6HR MIN TEMP:  65; 6HR MAX TEMP:  67;

SHEBOYGAN      CLOUDY    68  67  96 CALM      29.81R
6HR MIN TEMP:  64; 6HR MAX TEMP:  68;

WEST BEND      CLOUDY    63  63 100 CALM      29.81S FOG
JUNEAU         FOG       65  64  98 CALM      29.81F VSB 3/4
6HR MIN TEMP:  63; 6HR MAX TEMP:  65;

$$

LSZ147-162-221300-
LAKE SUPERIOR

STATION/POSITION TIME  TEMP    WIND        PRES    WAVE
                       AIR SEA DIR/SP/G            HT/PER
                 (UTC) (F)     (DEG/KT/KT) (MB)    (FT/S)
W MID LAKE BUOY  1150   50 47   30/ 12/ 12 1009.4R   1/ 3
DEVILS ISLAND    1200   56      10/  6/  7 1010.4R
SAXON HARBOR     1140   63     200/  3/  5 1009.5R
$$

LMZ867-665-643>646-221300-
LAKE MICHIGAN

STATION/POSITION TIME  TEMP    WIND        PRES    WAVE
                       AIR SEA DIR/SP/G            HT/PER
                 (UTC) (F)     (DEG/KT/KT) (MB)    (FT/S)
CHAMBERS ISLAND  1140   70     130/  5/  9 1009.5S
S GREEN BAY BUOY 1200   70 73  120/  2/  4 1009.8
N MID LAKE BUOY  1150   67 66  140/  6/  6 1010.6F   1
NORTHPORT PIER   1140



USA.gov is the U.S. government's official web portal to all federal, state and local government web resources and services.